This demonstration page uses our WeatherBlox Daily Observations layout. Learn more.

Left ArrowRight Arrow

Hourly Observations for May 22, 2021

Temp ( °F °C ) Dew Point ( °F °C ) Humidity (%) Winds ( mph kmh ) Pressure ( in mb ) Visibility ( mi km ) Precip ( " mm )
12:08 am 00:08 Cloudy 30 -1.1 29 -1.7 96 96 W 3 6 30.41 1030 7 11 0.00 0.00
12:18 am 00:18 Cloudy 30 -1 28 -2 93 93 Calm 30.42 1030 8 13 0.00 0.00
12:53 am 00:53 Cloudy 30 -1.1 28 -2.2 92 92 Calm 30.39 1029 7 11 0.00 0.00
1:04 am 01:04 Cloudy 30 -1.1 29 -1.7 96 96 undefined N/A 30.42 1030 7 11 0.00 0.00
1:15 am 01:15 Cloudy 30 -1.1 29 -1.7 96 96 undefined N/A 30.42 1030 7 11 0.00 0.00
1:53 am 01:53 Cloudy with Mist and Fog 31 -0.6 30 -1.1 96 96 Calm 30.40 1029 4 6 0.00 0.00
2:53 am 02:53 Cloudy 31 -0.6 29 -1.7 92 92 Calm 30.39 1029 8 13 0.00 0.00
3:53 am 03:53 Cloudy 31 -0.6 30 -1.1 96 96 Calm 30.39 1029 9 14 0.00 0.00
4:53 am 04:53 Cloudy 31 -0.6 29 -1.7 92 92 Calm 30.40 1030 9 14 0.00 0.00
5:37 am 05:37 Cloudy 31 -0.6 29 -1.7 92 92 Calm 30.42 1030 10 16 0.00 0.00
5:53 am 05:53 Cloudy 31 -0.6 29 -1.7 92 92 Calm 30.40 1029 10 16 0.00 0.00
6:32 am 06:32 Cloudy 31 -0.6 29 -1.7 92 92 Calm 30.43 1030 10 16 0.00 0.00
6:53 am 06:53 Cloudy 32 0 30 -1.1 92 92 ENE 5 7 30.39 1029 10 16 0.00 0.00
7:20 am 07:20 Cloudy 32 0 29 -1.7 88 88 ENE 3 6 30.42 1030 10 16 0.00 0.00
7:50 am 07:50 Cloudy 32 0 30 -1 93 93 E 3 6 30.43 1031 10 16 0.00 0.00
7:53 am 07:53 Cloudy 32 0 30 -1.1 92 92 ESE 5 7 30.41 1030 10 16 0.00 0.00
8:03 am 08:03 Cloudy 32 0 30 -1.1 92 92 ESE 5 7 30.42 1030 10 16 0.00 0.00
8:11 am 08:11 Cloudy 32 0 30 -1.1 92 92 SE 5 7 30.43 1031 10 16 0.00 0.00
8:53 am 08:53 Cloudy 33 0.6 29 -1.7 85 85 SE 3 6 30.42 1030 10 16 0.00 0.00
9:09 am 09:09 Cloudy 33 0.6 30 -1.1 89 89 ESE 3 6 30.44 1031 10 16 0.00 0.00
9:32 am 09:32 Cloudy 34 1.1 30 -1.1 85 85 Calm 30.43 1030 10 16 0.00 0.00
9:53 am 09:53 Cloudy 34 1.1 30 -1.1 85 85 SSE 3 6 30.43 1030 10 16 0.00 0.00
10:53 am 10:53 Cloudy 36 2.2 30 -1.1 79 79 Calm 30.42 1030 10 16 0.00 0.00
11:53 am 11:53 Cloudy 39 3.9 29 -1.7 67 67 Calm 30.41 1030 10 16 0.00 0.00
12:53 pm 12:53 Cloudy 39 3.9 30 -1.1 70 70 S 5 7 30.41 1030 10 16 0.00 0.00
1:53 pm 13:53 Cloudy 40 4.4 31 -0.6 70 70 SE 5 7 30.40 1030 10 16 0.00 0.00
2:53 pm 14:53 Cloudy 43 6.1 31 -0.6 63 63 Calm 30.38 1029 10 16 0.00 0.00
3:31 pm 15:31 Mostly Cloudy 43 6.1 31 -0.6 63 63 VRB 3 6 30.35 1028 10 16 0.00 0.00
3:53 pm 15:53 Mostly Cloudy 44 6.7 32 0 63 63 VRB 5 7 30.36 1028 10 16 0.00 0.00
4:03 pm 16:03 Mostly Cloudy 44 6.7 33 0.6 65 65 VRB 7 11 30.32 1027 10 16 0.00 0.00
4:53 pm 16:53 Cloudy 44 6.7 32 0 63 63 VRB 3 6 30.35 1028 10 16 0.00 0.00
5:53 pm 17:53 Cloudy 44 6.7 33 0.6 65 65 ESE 5 7 30.34 1028 10 16 0.00 0.00
6:01 pm 18:01 Cloudy 44 6.7 34 1.1 68 68 E 7 11 30.31 1026 10 16 0.00 0.00
6:23 pm 18:23 Cloudy 44 6.7 34 1.1 68 68 E 7 11 30.32 1027 10 16 0.00 0.00
6:53 pm 18:53 Cloudy 44 6.7 35 1.7 71 71 ENE 8 13 30.34 1028 10 16 0.00 0.00
7:53 pm 19:53 Cloudy 43 6.1 35 1.7 74 74 ENE 10 17 30.34 1027 10 16 0.00 0.00
8:07 pm 20:07 Cloudy 42 5.6 35 1.7 76 76 ENE 8 13 30.32 1027 10 16 0.00 0.00
8:53 pm 20:53 Cloudy 41 5 35 1.7 79 79 ENE 10 17 30.34 1027 10 16 0.00 0.00
9:22 pm 21:22 Cloudy 41 5 35 1.7 79 79 ENE 9 15 30.33 1027 10 16 0.00 0.00
9:50 pm 21:50 Cloudy 41 5 36 2 81 81 NE 7 11 30.32 1027 10 16 0.00 0.00
9:53 pm 21:53 Cloudy 41 5 35 1.7 79 79 NE 6 9 30.32 1027 10 16 0.00 0.00
10:53 pm 22:53 Cloudy 40 4.4 35 1.7 83 83 ENE 8 13 30.32 1027 10 16 0.00 0.00
11:53 pm 23:53 Cloudy 41 5 36 2.2 82 82 E 9 15 30.28 1026 10 16 0.00 0.00

Powered by AerisWeather